Location: Starhoo Observatory
(41.8578°N, 70.9669°W)
Time: 18:47:41
(UTC-04:00)

ISS - Visible Passes

Search period start: 28 June 2017 00:00
Search period end: 08 July 2017 00:00
Orbit: 401 x 408 km, 51.6° (Epoch: 29 June)

Date Brightness Start Highest point End Pass type
(mag) Time Alt. Az. Time Alt. Az. Time Alt. Az.
04 Jul -1.2 04:10:45 10° SSE 04:11:58 12° SE 04:13:11 10° ESE visible
06 Jul -2.3 04:01:28 14° S 04:03:36 27° SE 04:06:25 10° ENE visible
07 Jul -1.6 03:11:14 14° SE 03:11:30 15° SE 03:13:24 10° E visible
